This is the latest recevied weather packets stored in our database for station/object W5MAI. If no packets are shown the sender has not sent any weather packets the latest 10 day(s).
| Time | Temp. | Humidity | Pressure | Rain* | Wind** | Luminosity | Snow |
|---|---|---|---|---|---|---|---|
| 1788370405 | 33.89° C | 50% | 1017.3 hPa | 0 mm | - | 865 W/m² | - |
| 1788369217 | 33.89° C | 53% | 1017.6 hPa | 0 mm | - | 824 W/m² | - |
| 1788368624 | 33.89° C | 54% | 1017.6 hPa | 0 mm | - | 809 W/m² | - |
| 1788368054 | 33.33° C | 55% | 1017.7 hPa | 0 mm | - | 789 W/m² | - |
| 1788367414 | 33.33° C | 54% | 1017.8 hPa | 0 mm | - | 772 W/m² | - |
| 1788366845 | 32.78° C | 57% | 1017.8 hPa | 0 mm | - | 752 W/m² | - |
| 1788366245 | 32.22° C | 59% | 1017.9 hPa | 0 mm | - | 728 W/m² | - |
| 1788365661 | 31.67° C | 62% | 1017.9 hPa | 0 mm | - | 700 W/m² | - |
| 1788365004 | 31.67° C | 62% | 1018 hPa | 0 mm | - | 675 W/m² | - |
| 1788364439 | 31.11° C | 63% | 1018 hPa | 0 mm | - | 652 W/m² | - |
| 1788363860 | 31.11° C | 64% | 1017.9 hPa | 0 mm | - | 624 W/m² | - |
| 1788362623 | 30° C | 69% | 1017.9 hPa | 0 mm | - | 561 W/m² | - |
| 1788362056 | 29.44° C | 72% | 1017.9 hPa | 0 mm | - | 527 W/m² | - |
| 1788361462 | 29.44° C | 73% | 1017.9 hPa | 0 mm | - | 501 W/m² | - |
| 1788360806 | 28.89° C | 75% | 1018.1 hPa | 0 mm | - | 461 W/m² | - |
| 1788360217 | 28.33° C | 77% | 1018 hPa | 0 mm | - | 431 W/m² | - |
| 1788359623 | 28.33° C | 78% | 1018 hPa | 0 mm | - | 390 W/m² | - |
| 1788359052 | 27.78° C | 81% | 1018.1 hPa | 0 mm | - | 360 W/m² | - |
| 1788358459 | 27.22° C | 83% | 1018 hPa | 0 mm | - | 309 W/m² | - |
| 1788357225 | 26.67° C | 85% | 1018 hPa | 0 mm | - | 207 W/m² | - |
| 1788356660 | 26.11° C | 86% | 1018 hPa | 0 mm | - | 176 W/m² | - |
| 1788356010 | 25.56° C | 86% | 1018 hPa | 0 mm | - | 155 W/m² | - |
| 1788354824 | 23.33° C | 90% | 1017.8 hPa | 0 mm | - | 86 W/m² | - |
| 1788354245 | 22.22° C | 91% | 1017.7 hPa | 0 mm | - | 62 W/m² | - |
| 1788353604 | 21.67° C | 92% | 1017.6 hPa | 0 mm | - | 40 W/m² | - |
* Rain latest hour (hover to see other rain measurements)
** Current wind speed in m/s (hover to see current wind gust speed)